Location: Brownlee
(50.7397°N, 106.0159°W)
Time: 07:02:40
(UTC+00:00)

Envisat - Pass Details

Date: 07 December 2022
Orbit: 763 x 765 km, 98.2° (Epoch: 04 February)

Event Time Altitude Azimuth Distance (km) Brightness Sun altitude
Rises 11:49:45 0° 12° (NNE) 3,247 6.4 -27.6°
Reaches altitude 10° 11:52:05 10° 9° (N) 2,316 5.5 -27.2°
Enters shadow 11:54:27 28° 2° (N) 1,424 4.3 -26.9°
